Location: Newark
(40.4667°N, 5.6000°W)
Time: 16:31:08
(UTC+00:00)

A-11 Canister half - Pass Details

Date: 30 November 2019
Orbit: 1526 x 1683 km, 47.3° (Epoch: 13 December)

Event Time Altitude Azimuth Distance (km) Brightness Sun altitude
Rises 06:30:10 0° 183° (S) 4,908 11.9 -10.3°
Reaches altitude 10° 06:34:25 10° 168° (SSE) 3,932 11.6 -9.6°
Maximum altitude 06:41:12 21° 125° (SE) 3,173 11.8 -8.4°
Drops below altitude 10° 06:47:57 10° 82° (E) 3,931 12.2 -7.2°
Sets 06:52:09 0° 68° (ENE) 4,907 12.4 -6.5°
